[[{"header":{"parameterUnit":"m.s-1","parameterCategory":1,"la1":30.2991,"la2":30.254,"lo1":-89.0895,"lo2":-89.0444,"dy":0.0017,"dx":0.0017,"nx":28,"ny":28,"refTime":"2024-05-31T03:00:00:Z","depth":0,"parameterNumber":2,"parameterNumberName":"U-component_of_WINDS"},"data":[0,0,0,0,0,0,0,0,0,0,0,0,0,0,0,0,0,0,0,0,0,0,0,0,0,0,0,0,0,0,0,0,0,0,0,0,0,0,0,0,0,0,0,0,0,0,0,0,0,0,0,0,0,0,0,0,0,0,-5.8936,-5.8937,0,-5.9018,-5.9019,-5.902,-5.9012,-5.901,-5.9009,-5.9008,-5.9089,-5.9092,-5.9095,0,0,0,0,0,0,0,0,0,0,0,0,0,-5.8771,-5.8774,-5.8936,-5.8937,-5.8938,-5.9018,-5.9019,-5.902,-5.9012,-5.901,-5.9009,-5.9007,-5.9087,-5.9091,-5.9095,0,0,0,0,0,0,0,0,0,0,0,0,0,-5.8847,-5.8775,-5.8936,-5.8944,-5.8945,-5.9018,-5.9019,-5.9021,-5.9012,-5.901,-5.9008,-5.9006,-5.9086,-5.9091,-5.9096,-5.9165,0,0,-5.9111,-5.9113,0,0,0,0,0,0,0,0,-5.8843,-5.8853,-5.8942,-5.8943,-5.8945,-5.9003,-5.8991,-5.9069,-5.9013,-5.8987,-5.9008,-5.9005,-5.9061,-5.9068,-5.9088,-5.9169,-5.9173,-5.9112,-5.9115,-5.9117,-5.9118,0,0,0,0,0,0,0,-5.8837,-5.8849,-5.8969,-5.8943,-5.8945,-5.8943,-5.8951,-5.9006,-5.9034,-5.8989,-5.8988,-5.8998,-5.9062,-5.9083,-5.909,-5.9174,-5.9112,-5.9116,-5.9119,-5.9121,-5.9318,-5.932,0,0,0,0,0,0,-5.8831,-5.8845,-5.8966,-5.8971,-5.8888,-5.8947,-5.8957,-5.8986,-5.9033,-5.9038,-5.9,-5.8998,-5.9075,-5.9084,-5.9092,-5.9177,-5.9117,-5.9122,-5.9124,-5.9316,-5.9318,-5.9321,0,0,0,0,0,0,-5.8827,-5.8841,-5.8963,-5.8908,-5.8923,-5.8952,-5.8985,-5.8989,-5.901,-5.9042,-5.9046,-5.9016,-5.9074,-5.9085,-5.9148,-5.9179,-5.9124,-5.9128,-5.9313,-5.9316,-5.9319,-5.9346,0,0,0,0,0,0,-5.8822,-5.884,-5.8867,-5.8909,-5.8926,-5.9017,-5.8987,-5.8992,-5.9019,-5.9017,-5.9058,-5.9063,-5.9074,-5.914,-5.9153,-5.9185,-5.9132,-5.931,-5.9314,-5.9318,-5.9342,-5.935,-5.9356,0,0,0,0,0,-5.8816,-5.887,-5.8868,-5.8883,-5.896,-5.9019,-5.9029,-5.904,-5.9021,-5.9048,-5.9069,-5.9062,-5.9175,-5.9147,-5.9161,-5.9195,-5.9308,-5.9313,-5.9318,-5.9339,-5.9348,-5.9356,0,0,0,0,0,0,-5.8829,-5.8875,-5.8874,-5.8943,-5.8977,-5.9017,-5.9051,-5.905,-5.9089,-5.9085,-5.9098,-5.9107,-5.917,-5.9189,-5.9157,-5.9266,-5.9239,-5.9247,-5.925,-5.9259,-5.9266,-5.9258,-5.9136,0,0,0,0,0,-5.884,-5.8885,-5.8923,-5.898,-5.8997,-5.9022,-5.9047,-5.9054,-5.9089,-5.9103,-5.9129,-5.9163,-5.9206,-5.9234,-5.9276,-5.9346,-5.9355,-5.9377,-5.9384,-5.939,-5.9395,-5.9435,-5.9445,-5.9337,-5.9337,-5.9337,0,0,-5.8863,-5.8894,-5.892,-5.8983,-5.901,-5.9055,-5.9033,-5.9082,-5.9115,-5.911,-5.9171,-5.9191,-5.923,-5.9297,-5.9328,-5.9315,-5.9428,-5.9396,-5.94,-5.9403,-5.9441,-5.9451,-5.946,-5.934,-5.934,-5.9339,0,0,-5.8926,-5.8955,-5.9006,-5.9035,-5.9077,-5.9093,-5.9106,-5.9147,-5.9161,-5.9223,-5.922,-5.9261,-5.9335,-5.9363,-5.9387,-5.9466,-5.946,-5.9479,-5.9514,-5.9552,-5.956,-5.9568,-5.9595,-5.9605,-5.9486,-5.9486,-5.9486,0,-5.8948,-5.9017,-5.9032,-5.9081,-5.9109,-5.9109,-5.9161,-5.9188,-5.9241,-5.926,-5.9246,-5.9341,-5.9367,-5.9441,-5.946,-5.948,-5.9494,-5.9472,-5.9558,-5.9566,-5.9573,-5.9599,-5.9609,-5.9487,-5.9487,-5.9487,-5.9487,0,-5.9042,-5.9089,-5.9125,-5.9179,-5.9211,-5.9261,-5.9283,-5.9314,-5.9319,-5.9337,-5.9401,-5.9433,-5.9482,-5.9501,-5.9505,-5.9576,-5.9566,-5.9556,-5.9528,-5.9585,-5.9609,-5.962,-5.949,-5.9489,-5.9489,-5.9488,0,0,-5.9111,-5.9175,-5.9188,-5.9212,-5.9261,-5.9298,-5.9349,-5.9398,-5.9424,-5.9462,-5.9505,-5.957,-5.956,-5.9588,-5.9596,-5.963,-5.969,-5.9615,-5.9616,-5.9626,-5.9769,-5.9775,-5.9786,-5.9688,-5.969,-5.9692,-5.9765,0,-5.9178,-5.9269,-5.9285,-5.9364,-5.9408,-5.9412,-5.9456,-5.9491,-5.951,-5.955,-5.9572,-5.9617,-5.9602,-5.9619,-5.9653,-5.9675,-5.9718,-5.9671,-5.9727,-5.9728,-5.9714,-5.9799,-5.9806,-5.9873,-5.9775,-5.9777,-5.9778,0,-5.9268,-5.931,-5.9393,-5.9438,-5.9457,-5.9496,-5.9543,-5.9583,-5.9623,-5.9635,-5.9667,-5.9673,-5.9726,-5.9699,-5.9773,-5.974,-5.9765,-5.978,-5.9783,-5.9786,-5.9754,-5.9803,-5.9895,-5.9904,-5.9793,-5.9792,-5.9791,0,-5.9308,-5.9386,-5.9446,-5.9468,-5.9521,-5.9549,-5.9573,-5.9611,-5.964,-5.9682,-5.9701,-5.9748,-5.9773,-5.981,-5.9828,-5.9807,-5.99,-5.9875,-5.991,-5.991,-5.9927,-5.9925,-6.0021,-5.9947,-5.9947,-5.9947,-5.9946,0,-5.938,-5.943,-5.9465,-5.9502,-5.9559,-5.9579,-5.9635,-5.9658,-5.9693,-5.9734,-5.974,-5.9779,-5.9802,-5.9844,-5.9859,-5.9917,-5.9929,-5.9939,-5.9942,-5.9937,-5.9936,-5.9951,-5.9946,-5.9949,-5.9949,-5.9948,-5.9948,0,-5.9433,-5.9459,-5.9524,-5.9571,-5.9584,-5.9624,-5.9664,-5.97,-5.9721,-5.9773,-5.9787,-5.9819,-5.9869,-5.9892,-5.9954,-5.9964,-6.003,-6.0031,-6.0016,-6.0016,-6.005,-6.0046,-6.0158,-6.0173,-6.0091,-6.0091,-6.0092,0,-5.9475,-5.9515,-5.9567,-5.9595,-5.962,-5.9666,-5.9697,-5.9719,-5.975,-5.98,-5.983,-5.9881,-5.9922,-6.0002,-6.0031,-6.0079,-6.0079,-6.0116,-6.0086,-6.008,-6.0078,-6.0074,-6.0078,-6.012,-6.012,-6.0121,-6.0122,0,-5.9548,-5.9559,-5.9603,-5.9653,-5.9689,-5.9729,-5.9767,-5.9791,-5.9819,-5.9854,-5.9906,-5.9938,-6.0003,-6.0053,-6.0103,-6.0127,-6.0129,-6.0132,-6.0142,-6.0136,-6.0125,-6.013,-6.0028,-6.0128,-6.0127,-6.0127,-6.0126,-6.0126,-5.9596,-5.9631,-5.9674,-5.9723,-5.9755,-5.9792,-5.9828,-5.9855,-5.9899,-5.9953,-5.9964,-6.0019,-6.0061,-6.0129,-6.0155,-6.0199,-6.019,-6.0205,-6.0209,-6.0211,-6.0213,-6.0121,-6.0208,-6.0208,-6.0208,-6.0208,-6.0208,0,-5.9667,-5.9696,-5.9741,-5.9796,-5.9835,-5.9836,-5.988,-5.9912,-5.9961,-6.0,-6.0041,-6.0102,-6.0152,-6.0186,-6.0236,-6.0265,-6.0267,-6.0277,-6.0273,-6.0279,-6.0218,-6.0203,-6.0274,-6.0274,-6.0274,-6.0274,-6.0274,-6.0274,-5.9709,-5.9768,-5.9786,-5.9862,-5.989,-5.9945,-5.997,-6.0004,-6.0035,-6.0103,-6.0144,-6.0167,-6.0205,-6.0258,-6.0304,-6.0313,-6.033,-6.034,-6.0349,-6.029,-6.0283,-6.0276,-6.0262,-6.0345,-6.0345,-6.0406,-6.0406,-6.0407]},{"header":{"parameterUnit":"m.s-1","parameterCategory":1,"la1":30.2991,"la2":30.254,"lo1":-89.0895,"lo2":-89.0444,"dy":0.0017,"dx":0.0017,"nx":28,"ny":28,"refTime":"2024-05-31T03:00:00:Z","depth":0,"parameterNumber":3,"parameterNumberName":"V-component_of_WINDS"},"data":[0,0,0,0,0,0,0,0,0,0,0,0,0,0,0,0,0,0,0,0,0,0,0,0,0,0,0,0,0,0,0,0,0,0,0,0,0,0,0,0,0,0,0,0,0,0,0,0,0,0,0,0,0,0,0,0,0,0,4.2613,4.2613,0,4.2614,4.2614,4.2614,4.2623,4.2623,4.2623,4.2623,4.262,4.2619,4.2619,0,0,0,0,0,0,0,0,0,0,0,0,0,4.2614,4.2614,4.2613,4.2613,4.2613,4.2614,4.2614,4.2614,4.2623,4.2623,4.2623,4.2624,4.262,4.2619,4.2619,0,0,0,0,0,0,0,0,0,0,0,0,0,4.2614,4.2614,4.2613,4.2617,4.2618,4.2614,4.2614,4.2614,4.2623,4.2623,4.2623,4.2624,4.262,4.2619,4.2619,4.2609,0,0,4.2617,4.2617,0,0,0,0,0,0,0,0,4.2614,4.2614,4.2617,4.2617,4.2618,4.2619,4.2613,4.2612,4.2623,4.2621,4.2623,4.2624,4.2619,4.2618,4.2618,4.2609,4.2609,4.2617,4.2617,4.2617,4.2617,0,0,0,0,0,0,0,4.2614,4.2614,4.2613,4.2617,4.2617,4.2618,4.2619,4.2613,4.2617,4.2621,4.2621,4.2622,4.2619,4.2618,4.2618,4.2609,4.2617,4.2617,4.2617,4.2616,4.2594,4.2593,0,0,0,0,0,0,4.2614,4.2614,4.2613,4.2613,4.2617,4.2618,4.2618,4.2618,4.2618,4.2618,4.2622,4.2622,4.2619,4.2618,4.2617,4.2607,4.2617,4.2616,4.2616,4.2594,4.2594,4.2593,0,0,0,0,0,0,4.2614,4.2614,4.2613,4.2614,4.2614,4.2618,4.2617,4.2618,4.2617,4.2618,4.2619,4.262,4.2619,4.2618,4.2612,4.2607,4.2616,4.2616,4.2594,4.2594,4.2593,4.2586,0,0,0,0,0,0,4.2614,4.2614,4.2611,4.2614,4.2614,4.2608,4.2617,4.2618,4.2617,4.2618,4.2617,4.2617,4.2619,4.2613,4.2611,4.2607,4.2615,4.2595,4.2594,4.2594,4.2586,4.2585,4.2584,0,0,0,0,0,4.2614,4.2607,4.2611,4.261,4.261,4.2608,4.2608,4.2612,4.2616,4.2613,4.2614,4.2617,4.2608,4.2612,4.2611,4.2606,4.2595,4.2594,4.2594,4.2587,4.2585,4.2584,0,0,0,0,0,0,4.2601,4.2607,4.2611,4.2606,4.2607,4.261,4.2605,4.261,4.2608,4.2609,4.2612,4.2612,4.2605,4.2605,4.2609,4.2597,4.2602,4.2601,4.2598,4.2596,4.2595,4.2595,4.2615,0,0,0,0,0,4.2598,4.2597,4.2602,4.2596,4.2597,4.2601,4.26,4.2604,4.2604,4.2604,4.2604,4.2603,4.2601,4.2598,4.2595,4.2587,4.2587,4.2583,4.2581,4.258,4.2579,4.2576,4.2574,4.2591,4.2591,4.2591,0,0,4.2591,4.2594,4.2593,4.2594,4.2595,4.2593,4.2601,4.2598,4.2597,4.2603,4.2598,4.2598,4.2597,4.259,4.2587,4.259,4.2575,4.258,4.2579,4.2578,4.2575,4.2573,4.2572,4.259,4.2591,4.2591,0,0,4.2577,4.2579,4.2576,4.2577,4.258,4.2583,4.2582,4.2585,4.2587,4.2582,4.2587,4.2584,4.2579,4.2579,4.2578,4.2566,4.2569,4.2565,4.2558,4.2555,4.2553,4.2552,4.2548,4.2547,4.2564,4.2564,4.2564,0,4.2567,4.2566,4.2572,4.257,4.2571,4.2579,4.2575,4.2575,4.2576,4.2576,4.2579,4.2574,4.2574,4.2567,4.2565,4.2564,4.2562,4.2565,4.2553,4.2552,4.2551,4.2548,4.2546,4.2564,4.2564,4.2564,4.2564,0,4.2554,4.2553,4.2549,4.2553,4.2553,4.2549,4.2555,4.2554,4.2558,4.256,4.2556,4.2557,4.2555,4.2553,4.2556,4.2548,4.2549,4.2553,4.2558,4.2549,4.2546,4.2544,4.2563,4.2563,4.2563,4.2563,0,0,4.253,4.2539,4.2538,4.254,4.2545,4.2543,4.254,4.2541,4.254,4.2541,4.2538,4.2535,4.2539,4.2538,4.2541,4.2538,4.2529,4.2542,4.2542,4.254,4.2521,4.2519,4.2517,4.2532,4.2532,4.2531,4.2521,0,4.2517,4.2515,4.2522,4.2517,4.2516,4.2525,4.2523,4.2525,4.2527,4.2526,4.2529,4.2527,4.2532,4.2532,4.2529,4.2531,4.2526,4.2532,4.2529,4.2528,4.2529,4.2515,4.2512,4.2502,4.252,4.252,4.252,0,4.2501,4.2504,4.25,4.2507,4.2507,4.2505,4.2506,4.2506,4.2508,4.251,4.2511,4.2515,4.2512,4.2518,4.2514,4.2518,4.2517,4.2518,4.2518,4.2517,4.2523,4.2514,4.2499,4.2498,4.2518,4.2518,4.2518,0,4.2486,4.2488,4.2486,4.2488,4.2495,4.2493,4.2496,4.2499,4.25,4.2501,4.2501,4.2501,4.2501,4.25,4.2504,4.2508,4.25,4.2505,4.2501,4.2501,4.2498,4.2498,4.2483,4.2498,4.2498,4.2498,4.2498,0,4.247,4.2467,4.2479,4.2478,4.2475,4.2483,4.248,4.2483,4.2486,4.2485,4.2492,4.2491,4.2496,4.2495,4.2498,4.2495,4.2494,4.2496,4.2496,4.2495,4.2495,4.2494,4.2495,4.2497,4.2498,4.2498,4.2498,0,4.2452,4.2459,4.2458,4.2466,4.2468,4.2466,4.2472,4.2471,4.2475,4.2474,4.2474,4.248,4.248,4.2484,4.2483,4.2486,4.2481,4.2482,4.248,4.2481,4.2477,4.2477,4.246,4.2458,4.2474,4.2474,4.2474,0,4.2441,4.244,4.2449,4.245,4.2453,4.2454,4.2455,4.2463,4.2464,4.2468,4.2466,4.2467,4.2468,4.2466,4.247,4.247,4.2472,4.2466,4.2471,4.2471,4.2472,4.2472,4.2472,4.2464,4.2464,4.2464,4.2464,0,4.2423,4.2427,4.243,4.2434,4.2436,4.2439,4.2442,4.2442,4.2451,4.2452,4.2453,4.2453,4.2455,4.2455,4.2456,4.2458,4.2462,4.2462,4.2461,4.246,4.2459,4.246,4.2477,4.2462,4.2463,4.2463,4.2463,4.2463,4.2408,4.2408,4.2415,4.2417,4.2422,4.2425,4.2425,4.2431,4.2432,4.2435,4.2439,4.244,4.2443,4.2446,4.2447,4.2447,4.2449,4.2448,4.2447,4.2447,4.2446,4.246,4.2447,4.2447,4.2447,4.2447,4.2447,0,4.239,4.2396,4.2398,4.2404,4.2407,4.2413,4.2418,4.2419,4.242,4.2424,4.2425,4.2427,4.2428,4.2432,4.2434,4.2433,4.2435,4.2433,4.2433,4.2433,4.2444,4.2445,4.2431,4.2431,4.2431,4.2431,4.2431,4.2431,4.2381,4.2381,4.2387,4.2389,4.2395,4.2397,4.2399,4.2402,4.2406,4.2408,4.241,4.2413,4.2417,4.242,4.2421,4.2422,4.2422,4.2419,4.2421,4.2431,4.2432,4.2434,4.2435,4.2419,4.2419,4.2411,4.2411,4.2411]}]]